Weather History for Pensacola NAS, FL

Change the Weather History Date:

Thursday, January 24, 2013

  Actual Average Record
Temperature  
Mean Temperature 55 °F -  
Max Temperature 69 °F 59 °F 39 °F (2014)
Min Temperature 41 °F 42 °F 33 °F (2014)
Degree Days  
Heating Degree Days 10    
Growing Degree Days 5 (Base 50)    
Moisture  
Dew Point 51 °F    
Average Humidity 86    
Maximum Humidity 100    
Minimum Humidity 61    
Precipitation  
Precipitation 0.00 in - - ()
Sea Level Pressure  
Sea Level Pressure 30.29 in    
Wind  
Wind Speed 4 mph (WSW)    
Max Wind Speed 17 mph    
Max Gust Speed -    
Visibility 9 miles    
Events Fog , Rain    
Averages and records for this station are not official NWS values.
T = Trace of Precipitation, MM = Missing Value Source: NWS Daily Summary

Daily Weather History Graph

Daily Weather History Graph

Search for Another Location

Airport:

Trip Planner

Search our weather history database for the weather conditions in past years. The results will help you decide how hot, cold, wet, or windy it might be!

Date:

Astronomy

Jan. 24, 2013 Rise Set
Actual Time 6:44 AM CST 5:19 PM CST
Civil Twilight 6:18 AM CST 5:44 PM CST
Nautical Twilight 5:49 AM CST 6:13 PM CST
Astronomical Twilight 5:20 AM CST 6:42 PM CST
Moon 3:23 PM CST (1/24) 4:38 AM CST (1/24)
Length of Visible Light 11h 26m
Length of Day
10h 35m
Waxing Gibbous, 94% of the Moon is Illuminated
Jan 24
Waxing Gibbous
Jan 26
Full
Feb 3
Last Quarter
Feb 10
New
Feb 17
First Quarter

Hourly Weather History & Observations

Time (CST) Temp. Windchill Dew Point Humidity Pressure Visibility Wind Dir Wind Speed Gust Speed Precip Events Conditions
12:56 AM 45.0 °F - 44.1 °F 97% 30.31 in 10.0 mi Calm Calm - N/A   Clear
1:56 AM 48.9 °F - 48.0 °F 97% 30.30 in 10.0 mi WSW 3.5 mph - 0.00 in Rain Light Rain
2:56 AM 46.0 °F 44.8 °F 46.0 °F 100% 30.30 in 4.0 mi NW 3.5 mph - 0.00 in Rain Light Rain
3:23 AM 44.6 °F - 42.8 °F 93% 30.29 in 2.0 mi Calm Calm - 0.00 in   Clear
3:32 AM 42.8 °F - 42.8 °F 100% 30.29 in 4.0 mi Calm Calm - 0.00 in   Clear
3:56 AM 43.0 °F - 42.1 °F 97% 30.29 in 6.0 mi Calm Calm - 0.00 in   Clear
4:56 AM 41.0 °F - 41.0 °F 100% 30.31 in 7.0 mi Calm Calm - 0.00 in   Clear
5:56 AM 43.0 °F 41.3 °F 42.1 °F 97% 30.32 in 8.0 mi West 3.5 mph - N/A   Clear
6:56 AM 41.0 °F - 41.0 °F 100% 30.32 in 7.0 mi Calm Calm - N/A Fog Shallow Fog
7:56 AM 55.0 °F - 54.0 °F 96% 30.34 in 10.0 mi West 3.5 mph - N/A   Partly Cloudy
8:56 AM 61.0 °F - 54.0 °F 78% 30.35 in 10.0 mi West 4.6 mph - N/A   Partly Cloudy
9:56 AM 64.9 °F - 54.0 °F 68% 30.35 in 10.0 mi Variable 6.9 mph - N/A   Scattered Clouds
10:56 AM 68.0 °F - 54.0 °F 61% 30.34 in 10.0 mi Variable 5.8 mph - N/A   Scattered Clouds
11:56 AM 68.0 °F - 55.9 °F 65% 30.31 in 10.0 mi SSW 11.5 mph - N/A   Mostly Cloudy
12:56 PM 66.9 °F - 55.0 °F 66% 30.29 in 10.0 mi SW 15.0 mph - N/A   Mostly Cloudy
1:56 PM 69.1 °F - 55.0 °F 61% 30.27 in 10.0 mi SW 17.3 mph - N/A   Mostly Cloudy
2:56 PM 66.9 °F - 55.0 °F 66% 30.25 in 10.0 mi SW 15.0 mph - N/A   Scattered Clouds
3:56 PM 64.9 °F - 55.9 °F 73% 30.25 in 10.0 mi SW 11.5 mph - N/A   Mostly Cloudy
4:56 PM 63.0 °F - 55.0 °F 75% 30.25 in 10.0 mi WSW 6.9 mph - N/A   Mostly Cloudy
5:56 PM 60.1 °F - 55.0 °F 83% 30.26 in 10.0 mi WSW 5.8 mph - N/A   Mostly Cloudy
6:56 PM 57.0 °F - 55.0 °F 93% 30.27 in 10.0 mi Calm Calm - N/A   Mostly Cloudy
7:56 PM 54.0 °F - 54.0 °F 100% 30.29 in 10.0 mi West 3.5 mph - N/A   Mostly Cloudy
8:56 PM 60.1 °F - 55.9 °F 86% 30.28 in 10.0 mi WSW 3.5 mph - N/A   Mostly Cloudy
9:56 PM 59.0 °F - 55.9 °F 90% 30.29 in 10.0 mi Calm Calm - N/A   Overcast
10:56 PM 55.9 °F - 55.0 °F 97% 30.28 in 10.0 mi WSW 3.5 mph - N/A   Overcast
11:56 PM 54.0 °F - 54.0 °F 100% 30.27 in 9.0 mi Calm Calm - N/A   Clear